Regional Weather Roundup
Issued by NWS

Home | Current Version | Previous Version | Graphics & Text | Print | Product List | Glossary On
Versions: 1 2 3 4 5 6 7 8 9 10 11 12 13 14 15 16 17 18 19 20 21 22 23 24 25 26 27 28 29 30 31 32 33 34 35 36 37 38 39 40 41 42 43 44 45 46 47 48 49 50
674
ASUS43 KDTX 260910
RWRMI
MICHIGAN HOURLY REGIONAL WEATHER ROUNDUP
NATIONAL WEATHER SERVICE DETROIT/PONTIAC MI
500 AM EDT MON SEP 26 2016

NOTE: "FAIR" INDICATES FEW OR NO CLOUDS BELOW 12,000 FEET WITH NO
SIGNIFICANT WEATHER AND/OR OBSTRUCTION TO VISIBILITY.

MIZ047>049-052>055-059>063-066>070-074>076-081>083-261000-
SOUTHEAST LOWER MICHIGAN

CITY           SKY/WX    TMP DP  RH WIND       PRES   REMARKS
ADRIAN         CLOUDY    66  66 100 SW6       29.89F
ALMA           LGT RAIN  63  60  87 SW5       29.85S
ANN ARBOR      MOCLDY    62  60  93 S5        29.86F
BAD AXE        CLOUDY    60  54  79 S10G20    29.85S
CARO           CLOUDY    64  58  80 S9        29.83F
DETROIT CITY   CLOUDY    66  59  78 S7        29.87F
DETROIT        LGT RAIN  65  59  81 S8        29.88F
FLINT          CLOUDY    67  59  75 SW9       29.84F
GROSSE ILE     LGT RAIN  65  59  78 S8        29.87F
HILLSDALE      DRIZZLE   64  63  94 W3        29.88F
HOWELL         CLOUDY    66  60  82 SW7       29.86S

CITY           SKY/WX    TMP DP  RH WIND       PRES   REMARKS
JACKSON        CLOUDY    67  63  87 W8        29.88S
LAMBERTVILLE   CLOUDY    64  60  87 CALM      29.89F
LANSING        LGT RAIN  65  58  78 SW10      29.87S
LAPEER         MOCLDY    64  56  75 S10       29.85F
MASON          CLOUDY    65  60  81 W3        29.88R
MONROE         CLOUDY    62  59  90 SE7       29.87F
MT. CLEMENS    CLOUDY    65  61  86 S8        29.85F
PONTIAC        CLOUDY    65  57  75 S7        29.86F
PORT HOPE        N/A     61  57  87 S10G17    29.83F
PORT HURON     LGT RAIN  61  57  88 S7        29.87F
TRI CITIES     MOCLDY    61  58  90 SW5       29.84F
MIDLAND        CLOUDY    58  58  98 CALM      29.82F
TROY           CLOUDY    64  60  87 CALM      29.88F
SAGINAW HB     CLOUDY    64  57  77 SW8       29.82S
$$
MIZ043>046-050>051-056>058-064>065-071>073-077>080-261000-
SOUTHWEST LOWER MICHIGAN

CITY           SKY/WX    TMP DP  RH WIND       PRES   REMARKS
BATTLE CREEK   CLOUDY    64  61  90 W7        29.90R
BENTON HARBOR  LGT RAIN  60  57  89 W7        29.93S
BIG RAPIDS     LGT RAIN  62  61  96 SW7       29.84S
COLDWATER      LGT RAIN  66  61  82 W12       29.90F
FREMONT        DRIZZLE   60  59  97 W5        29.85F
HOLLAND        RAIN      62  60  93 W7        29.91R
GRAND RAPIDS   CLOUDY    64  58  80 W14       29.89R
IONIA          CLOUDY    63  61  93 W10       29.86S
KALAMAZOO      CLOUDY    64  59  83 W10       29.91S
LUDINGTON      CLOUDY    62  57  83 W9G21     29.82F
MARSHALL       CLOUDY    65  64  97 W6        29.89S
MOUNT PLEASANT CLOUDY    62  57  86 SW5       29.82F
MUSKEGON       LGT RAIN  63  57  81 W10       29.87F
SOUTH HAVEN    RAIN      62  59  93 W6        29.93R
$$
MIZ016>042-261000-
NORTHERN LOWER MICHIGAN

CITY           SKY/WX    TMP DP  RH WIND       PRES   REMARKS
ALPENA         CLOUDY    58  56  93 S5        29.81F
BEAVER ISLAND  CLOUDY    62  58  87 SW12G20   29.72F
BELLAIRE       CLOUDY    58  56  93 S6        29.77F
CADILLAC       RAIN      59  58  96 SW9       29.81F
CHARLEVOIX     CLOUDY    59  58  99 S7        29.78F
FRANKFORT      CLOUDY    63  56  77 W16G22    29.79F
GAYLORD        LGT RAIN  56  53  90 S12       29.79S
GRAYLING       DRIZZLE   56  55  97 S3        29.81F
HARBOR SPRINGS CLOUDY    57  56  96 S7        29.76S
HOUGHTON LAKE  CLOUDY    56  54  93 S5        29.82F
MANISTEE       CLOUDY    62  56  80 W15       29.81S
OSCODA         CLOUDY    60  57  89 S13       29.82F
PELLSTON       LGT RAIN  58  55  90 S5        29.76S
ROGERS CITY    RAIN      57  55  91 S10G16    29.80F
TRAVERSE CITY  CLOUDY    61  59  93 S3        29.76F
$$
MIZ007>008-015-261000-
EASTERN UPPER MICHIGAN

CITY           SKY/WX    TMP DP  RH WIND       PRES   REMARKS
KINROSS        LGT RAIN  56  56 100 SE18      29.72F
MACKINAC ISLAN LGT RAIN  57  57 100 S14G20    29.73F
NEWBERRY       CLOUDY    62  61  97 SW10      29.68F
S. S. MARIE    LGT RAIN  58  56  93 SE10      29.73F
MUNISING         N/A     59  57  93 SW7       29.67F
$$
MIZ004>006-011>014-085-261000-
CENTRAL UPPER MICHIGAN

CITY           SKY/WX    TMP DP  RH WIND       PRES   REMARKS
MANISTIQUE     CLOUDY    59  57  92 SW6       29.71F
ESCANABA       CLOUDY    57  55  93 SW9       29.72F
MENOMINEE        N/A     56  52  86 VRB6      29.77
SAWYER-GWINN   CLOUDY    55  53  93 SW14      29.70F
$$
MIZ001>003-009>011-084-261000-
WESTERN UPPER MICHIGAN

CITY           SKY/WX    TMP DP  RH WIND       PRES   REMARKS
IRON MOUNTAIN  CLOUDY    54  48  80 SW9       29.72F
HOUGHTON       CLOUDY    53  48  83 SW6       29.64F
COPPER HARBOR    N/A     57  53  86 W3        29.63F
IRONWOOD       LGT RAIN  50  48  93 SW12      29.70F FOG
$$

ABBREVIATIONS USED IN REMARKS
   TC - TEMPERATURE IN CELSIUS
  WCI - WIND CHILL INDEX
   HX - HEAT INDEX
  VSB - VISIBILITY





USA.gov is the U.S. government's official web portal to all federal, state and local government web resources and services.